FW2654 Weather Reports


time (UTC)temp
F
wind
direction
speed
knots
gust
knots
rain 1hr
in
rain 24hr
in
rain mn
in
humidity
%
barometer
mb
20260508220345 67 218 0.0 0.0 0.00 0.00 0.00 44 1008.5
20260508215838 67 273 0.0 0.0 0.00 0.00 0.00 43 1008.5
20260508215332 67 176 0.0 0.0 0.00 0.00 0.00 44 1008.5
20260508214827 67 261 0.0 0.0 0.00 0.00 0.00 44 1008.5
20260508214545 68 211 0.0 0.0 0.00 0.00 0.00 44 1008.5
20260508213814 68 78 0.0 0.0 0.00 0.00 0.00 44 1008.5
20260508213308 68 142 0.0 0.0 0.00 0.00 0.00 43 1008.6
20260508212803 68 316 0.0 0.0 0.00 0.00 0.00 44 1008.6
20260508212257 68 304 0.0 0.0 0.00 0.00 0.00 43 1008.7
20260508211751 68 153 0.0 0.0 0.00 0.00 0.00 45 1008.6
20260508211245 68 302 0.0 0.0 0.00 0.00 0.00 43 1008.7
20260508210739 67 211 0.0 0.0 0.00 0.00 0.00 43 1008.8
20260508210233 68 314 0.0 0.0 0.00 0.00 0.00 44 1009.0
20260508205727 68 249 0.0 0.0 0.00 0.00 0.00 43 1009.1
20260508205221 68 254 0.0 0.0 0.00 0.00 0.00 43 1009.2
20260508204715 68 276 0.0 0.0 0.00 0.00 0.00 42 1009.4
20260508204209 68 108 0.0 0.0 0.00 0.00 0.00 43 1009.4
20260508203703 68 288 0.0 0.0 0.00 0.00 0.00 42 1009.3
20260508203414 68 201 0.0 0.0 0.00 0.00 0.00 41 1009.4
20260508202915 68 180 0.0 0.0 0.00 0.00 0.00 42 1009.4
20260508202632 68 225 0.0 0.0 0.00 0.00 0.00 43 1009.5
20260508201648 68 252 0.0 0.0 0.00 0.00 0.00 43 1009.5
20260508201148 68 253 0.0 0.0 0.00 0.00 0.00 43 1009.5
20260508200645 68 214 0.0 0.0 0.00 0.00 0.00 41 1009.5
20260508200622 68 171 0.0 0.0 0.00 0.00 0.00 42 1009.6
20260508195642 68 209 0.0 0.0 0.00 0.00 0.00 41 1009.6
20260508195144 68 210 0.0 0.0 0.00 0.00 0.00 41 1009.7
20260508194642 68 319 0.0 0.0 0.00 0.00 0.00 39 1009.7
20260508194143 69 273 0.0 0.0 0.00 0.00 0.00 39 1009.7
20260508193642 69 265 0.0 0.0 0.00 0.00 0.00 40 1009.6
20260508193405 70 231 0.0 0.0 0.00 0.00 0.00 38 1009.8
20260508192902 70 165 0.0 0.0 0.00 0.00 0.00 39 1009.9
20260508192143 70 340 0.0 0.0 0.00 0.00 0.00 39 1009.9
20260508191642 70 229 0.0 0.0 0.00 0.00 0.00 40 1010.0
20260508191408 69 104 0.0 0.0 0.00 0.00 0.00 40 1010.0
20260508190642 69 189 0.0 0.0 0.00 0.00 0.00 41 1010.1
20260508190405 69 355 0.0 0.0 0.00 0.00 0.00 39 1010.3
20260508185643 70 351 0.0 0.0 0.00 0.00 0.00 39 1010.4
20260508185410 70 319 0.0 0.0 0.00 0.00 0.00 41 1010.5
20260508184638 69 123 0.0 0.0 0.00 0.00 0.00 42 1010.5
20260508184139 69 163 0.0 0.0 0.00 0.00 0.00 42 1010.6
20260508183639 69 304 0.0 0.0 0.00 0.00 0.00 41 1010.7
20260508183139 69 327 0.0 0.0 0.00 0.00 0.00 44 1010.7
20260508182636 69 315 0.0 0.0 0.00 0.00 0.00 42 1010.7
20260508182136 69 151 0.0 0.0 0.00 0.00 0.00 41 1010.9
20260508181636 69 153 0.0 0.0 0.00 0.00 0.00 41 1010.9
20260508181136 69 120 0.0 0.0 0.00 0.00 0.00 42 1011.0
20260508180637 69 344 0.0 0.0 0.00 0.00 0.00 39 1011.1
20260508180136 69 161 0.0 0.0 0.00 0.00 0.00 42 1011.1
20260508175634 68 234 0.0 0.0 0.00 0.00 0.00 42 1011.1
20260508175139 67 216 0.0 0.0 0.00 0.00 0.00 44 1011.3
20260508174635 67 237 0.0 0.0 0.00 0.00 0.00 42 1011.4
20260508174135 67 250 0.0 0.0 0.00 0.00 0.00 42 1011.6
20260508173634 67 263 0.0 0.0 0.00 0.00 0.00 42 1011.7
20260508173130 68 170 0.0 0.0 0.00 0.00 0.00 45 1011.8
20260508172852 68 227 0.0 0.0 0.00 0.00 0.00 44 1011.9
20260508172129 68 244 0.0 0.0 0.00 0.00 0.00 45 1011.9
20260508171627 68 232 0.0 0.0 0.00 0.00 0.00 43 1011.9
20260508171127 68 159 0.0 0.0 0.00 0.00 0.00 43 1012.1
20260508170624 69 272 0.0 0.0 0.00 0.00 0.00 44 1012.2
20260508170126 69 188 0.0 0.0 0.00 0.00 0.00 45 1012.2
20260508165845 69 286 0.0 0.0 0.00 0.00 0.00 43 1012.4
20260508165124 69 182 0.0 0.0 0.00 0.00 0.00 44 1012.4
20260508164848 68 336 0.0 0.0 0.00 0.00 0.00 45 1012.5
20260508164126 68 271 0.0 0.0 0.00 0.00 0.00 47 1012.6
20260508163620 68 234 0.0 0.0 0.00 0.00 0.00 47 1012.6
20260508163120 67 174 0.0 0.0 0.00 0.00 0.00 45 1012.7
20260508162620 67 277 0.0 0.0 0.00 0.00 0.00 46 1012.8
20260508162121 67 259 0.0 0.0 0.00 0.00 0.00 45 1012.8
20260508161846 67 266 0.0 0.0 0.00 0.00 0.00 46 1012.9
20260508161121 67 208 0.0 0.0 0.00 0.00 0.00 45 1013.0
20260508160620 67 246 0.0 0.0 0.00 0.00 0.00 46 1013.0
20260508160120 67 220 0.0 0.0 0.00 0.00 0.00 49 1013.1
20260508155620 67 132 0.0 0.0 0.00 0.00 0.00 49 1013.1
20260508155119 66 271 0.0 0.0 0.00 0.00 0.00 48 1013.1
20260508154621 66 204 0.0 0.0 0.00 0.00 0.00 48 1013.1
20260508154120 66 245 0.0 0.0 0.00 0.00 0.00 48 1013.2
20260508153619 66 165 0.0 0.0 0.00 0.00 0.00 48 1013.3
20260508153119 65 313 0.0 0.0 0.00 0.00 0.00 48 1013.4
20260508152621 65 205 0.0 0.0 0.00 0.00 0.00 47 1013.4
20260508152119 65 202 0.0 0.0 0.00 0.00 0.00 48 1013.5
20260508151620 65 277 0.0 0.0 0.00 0.00 0.00 46 1013.4
20260508151120 65 144 0.0 0.0 0.00 0.00 0.00 48 1013.5
20260508150613 65 355 0.0 0.0 0.00 0.00 0.00 51 1013.5
20260508150109 64 184 0.0 0.0 0.00 0.00 0.00 50 1013.5
20260508145602 64 278 0.0 0.0 0.00 0.00 0.00 49 1013.5
20260508145055 64 140 0.0 0.0 0.00 0.00 0.00 51 1013.6
20260508144549 63 282 0.0 0.0 0.00 0.00 0.00 51 1013.6
20260508144047 63 260 0.0 0.0 0.00 0.00 0.00 50 1013.6
20260508143548 62 293 0.0 0.0 0.00 0.00 0.00 52 1013.7
20260508143049 62 290 0.0 0.0 0.00 0.00 0.00 53 1013.7
20260508142549 62 243 0.0 0.0 0.00 0.00 0.00 50 1013.8
20260508142308 62 337 0.0 0.0 0.00 0.00 0.00 51 1013.8
20260508141545 61 225 0.0 0.0 0.00 0.00 0.00 56 1013.9
20260508141045 61 283 0.0 0.0 0.00 0.00 0.00 54 1013.9
20260508140546 60 256 0.0 0.0 0.00 0.00 0.00 54 1014.0
20260508140540 60 331 0.0 0.0 0.00 0.00 0.00 56 1013.9
20260508135543 59 266 0.0 0.0 0.00 0.00 0.00 56 1013.9
20260508135043 58 93 0.0 0.0 0.00 0.00 0.00 63 1013.9
20260508134807 57 209 0.0 0.0 0.00 0.00 0.00 63 1014.0
20260508134042 56 82 0.0 0.0 0.00 0.00 0.00 64 1014.1
20260508133544 56 278 0.0 0.0 0.00 0.00 0.00 66 1014.1
20260508133041 55 125 0.0 0.0 0.00 0.00 0.00 67 1014.2
20260508132811 55 102 0.0 0.0 0.00 0.00 0.00 66 1014.2
20260508132043 54 255 0.0 0.0 0.00 0.00 0.00 66 1014.2
20260508131801 54 232 0.0 0.0 0.00 0.00 0.00 67 1014.2
20260508131031 54 355 0.0 0.0 0.00 0.00 0.00 67 1014.2
20260508130525 54 278 0.0 0.0 0.00 0.00 0.00 67 1014.2
20260508130239 53 355 0.0 0.0 0.00 0.00 0.00 69 1014.0
20260508125513 52 162 0.0 0.0 0.00 0.00 0.00 71 1014.1
20260508125007 52 175 0.0 0.0 0.00 0.00 0.00 70 1014.1
20260508124719 51 167 0.0 0.0 0.00 0.00 0.00 72 1014.1
20260508123955 51 274 0.0 0.0 0.00 0.00 0.00 72 1014.0
20260508123449 50 317 0.0 0.0 0.00 0.00 0.00 74 1014.0
20260508122943 50 96 0.0 0.0 0.00 0.00 0.00 75 1013.9
20260508122437 49 302 0.0 0.0 0.00 0.00 0.00 74 1014.0
20260508121932 49 89 0.0 0.0 0.00 0.00 0.00 75 1014.0
20260508121913 49 227 0.0 0.0 0.00 0.00 0.00 75 1014.0
20260508120919 48 0 0.0 0.0 0.00 0.00 0.00 76 1014.0
20260508120413 48 173 0.0 0.0 0.00 0.00 0.00 78 1014.0
20260508115906 47 261 0.0 0.0 0.00 0.00 0.00 79 1013.9
20260508115400 47 136 0.0 0.0 0.00 0.00 0.00 79 1013.9
20260508114855 47 160 0.0 0.0 0.00 0.00 0.00 79 1013.8
20260508114349 47 210 0.0 0.0 0.00 0.00 0.00 79 1013.8
20260508113843 46 107 0.0 0.0 0.00 0.00 0.00 79 1013.7
20260508113826 46 257 0.0 0.0 0.00 0.00 0.00 80 1013.7
20260508112831 46 0 0.0 0.0 0.00 0.00 0.00 81 1013.7
20260508112324 46 0 0.0 0.0 0.00 0.00 0.00 81 1013.6
20260508111819 45 0 0.0 0.0 0.00 0.00 0.00 82 1013.5
20260508111313 45 155 0.0 0.0 0.00 0.00 0.00 83 1013.5
20260508110807 45 199 0.0 0.0 0.00 0.00 0.00 84 1013.4
20260508110301 44 170 0.0 0.0 0.00 0.00 0.00 86 1013.5
20260508105756 44 170 0.0 0.0 0.00 0.00 0.00 87 1013.4
20260508105249 44 303 0.0 0.0 0.00 0.00 0.00 87 1013.5
20260508104743 44 303 0.0 0.0 0.00 0.00 0.00 88 1013.5
20260508104726 44 303 0.0 0.0 0.00 0.00 0.00 89 1013.5
20260508103730 43 303 0.0 0.0 0.00 0.00 0.00 89 1013.5
20260508103225 43 303 0.0 0.0 0.00 0.00 0.00 89 1013.5
20260508102719 43 303 0.0 0.0 0.00 0.00 0.00 89 1013.5
20260508102213 43 303 0.0 0.0 0.00 0.00 0.00 90 1013.5
20260508101707 43 303 0.0 0.0 0.00 0.00 0.00 90 1013.5
20260508101201 43 303 0.0 0.0 0.00 0.00 0.00 90 1013.5
20260508100655 42 303 0.0 0.0 0.00 0.00 0.00 90 1013.4
20260508100149 42 303 0.0 0.0 0.00 0.00 0.00 91 1013.4
20260508095643 42 303 0.0 0.0 0.00 0.00 0.00 91 1013.5
20260508095615 42 303 0.0 0.0 0.00 0.00 0.00 91 1013.5
20260508094631 42 303 0.0 0.0 0.00 0.00 0.00 91 1013.5
20260508094125 42 303 0.0 0.0 0.00 0.00 0.00 91 1013.5
20260508093842 42 303 0.0 0.0 0.00 0.00 0.00 91 1013.5
20260508093554 42 303 0.0 0.0 0.00 0.00 0.00 91 1013.5
20260508092608 41 303 0.0 0.0 0.00 0.00 0.00 91 1013.5
20260508092104 41 303 0.0 0.0 0.00 0.00 0.00 91 1013.5
20260508091554 41 303 0.0 0.0 0.00 0.00 0.00 91 1013.5
20260508091049 41 303 0.0 0.0 0.00 0.00 0.00 91 1013.6
20260508090543 40 303 0.0 0.0 0.00 0.00 0.00 91 1013.5
20260508090037 40 303 0.0 0.0 0.00 0.00 0.00 91 1013.5
20260508085537 40 304 0.0 0.0 0.00 0.00 0.00 90 1013.5
20260508085300 40 304 0.0 0.0 0.00 0.00 0.00 90 1013.5
20260508084757 40 304 0.0 0.0 0.00 0.00 0.00 89 1013.5
20260508084036 40 304 0.0 0.0 0.00 0.00 0.00 89 1013.6
20260508083537 40 303 0.0 0.0 0.00 0.00 0.00 89 1013.5
20260508083515 40 304 0.0 0.0 0.00 0.00 0.00 88 1013.4
20260508082533 40 304 0.0 0.0 0.00 0.00 0.00 88 1013.4
20260508082034 40 304 0.0 0.0 0.00 0.00 0.00 87 1013.3
20260508081534 40 304 0.0 0.0 0.00 0.00 0.00 87 1013.3
20260508081032 40 304 0.0 0.0 0.00 0.00 0.00 87 1013.3
20260508080532 40 304 0.0 0.0 0.00 0.00 0.00 87 1013.3
20260508080028 40 304 0.0 0.0 0.00 0.00 0.00 87 1013.4
20260508075529 40 303 0.0 0.0 0.00 0.00 0.00 87 1013.4
20260508075030 40 303 0.0 0.0 0.00 0.00 0.00 87 1013.3
20260508074755 40 303 0.0 0.0 0.00 0.00 0.00 86 1013.3
20260508074028 40 303 0.0 0.0 0.00 0.00 0.00 86 1013.3
20260508073533 41 303 0.0 0.0 0.00 0.00 0.00 86 1013.3
20260508073030 41 303 0.0 0.0 0.00 0.00 0.00 86 1013.3
20260508072527 41 303 0.0 0.0 0.00 0.00 0.00 86 1013.4
20260508072026 41 303 0.0 0.0 0.00 0.00 0.00 86 1013.3
20260508071528 41 303 0.0 0.0 0.00 0.00 0.00 85 1013.3
20260508071027 41 303 0.0 0.0 0.00 0.00 0.00 85 1013.4
20260508070529 41 301 0.0 0.0 0.00 0.00 0.00 85 1013.4
20260508070026 42 0 0.0 0.0 0.00 0.00 0.00 84 1013.4
20260508065747 42 300 0.0 0.0 0.00 0.00 0.00 84 1013.5
20260508065251 42 0 0.0 0.0 0.00 0.00 0.00 83 1013.7
20260508064528 42 300 0.0 0.0 0.00 0.00 0.00 83 1013.7
20260508064026 42 300 0.0 0.0 0.00 0.00 0.00 83 1013.8
20260508063528 42 301 0.0 0.0 0.00 0.00 0.00 83 1013.9
20260508063247 42 301 0.0 0.0 0.00 0.00 0.00 83 1013.9
20260508062745 42 301 0.0 0.0 0.00 0.00 0.00 83 1013.9
20260508062022 43 300 0.0 0.0 0.00 0.00 0.00 83 1014.0
20260508061519 43 301 0.0 0.0 0.00 0.00 0.00 83 1014.0
20260508061020 43 301 0.0 0.0 0.00 0.00 0.00 83 1014.0
20260508060518 43 302 0.0 0.0 0.00 0.00 0.00 83 1014.0
20260508060243 43 302 0.0 0.0 0.00 0.00 0.00 83 1013.9
20260508055515 43 302 0.0 0.0 0.00 0.00 0.00 83 1014.0
20260508055015 43 302 0.0 0.0 0.00 0.00 0.00 83 1014.1
20260508054516 43 302 0.0 0.0 0.00 0.00 0.00 83 1014.0
20260508054015 43 300 0.0 0.0 0.00 0.00 0.00 83 1014.1
20260508053516 43 301 0.0 0.0 0.00 0.00 0.00 83 1014.0
20260508053016 43 300 0.0 0.0 0.00 0.00 0.00 83 1014.0
20260508052516 44 301 0.0 0.0 0.00 0.00 0.00 82 1014.0
20260508052017 44 302 0.0 0.0 0.00 0.00 0.00 82 1013.9
20260508051737 44 302 0.0 0.0 0.00 0.00 0.00 81 1013.9
20260508051012 44 303 0.0 0.0 0.00 0.00 0.00 82 1013.9
20260508050513 44 303 0.0 0.0 0.00 0.00 0.00 81 1013.9
20260508050011 44 303 0.0 0.0 0.00 0.00 0.00 81 1013.9
20260508045512 44 303 0.0 0.0 0.00 0.00 0.00 81 1013.9
20260508045011 44 303 0.0 0.0 0.00 0.00 0.00 81 1013.9
20260508044512 44 303 0.0 0.0 0.00 0.00 0.00 81 1013.9
20260508044012 44 303 0.0 0.0 0.00 0.00 0.00 81 1013.8
20260508043513 44 303 0.0 0.0 0.00 0.00 0.00 81 1013.9
20260508043504 44 303 0.0 0.0 0.00 0.00 0.00 81 1013.9
20260508042512 44 303 0.0 0.0 0.00 0.00 0.00 82 1013.9
20260508042012 43 303 0.0 0.0 0.00 0.00 0.00 83 1013.8
20260508041511 43 302 0.0 0.0 0.00 0.00 0.00 83 1013.8
20260508041008 43 302 0.0 0.0 0.00 0.00 0.00 82 1013.7
20260508040729 43 0 0.0 0.0 0.00 0.00 0.00 82 1013.6
20260508040008 43 0 0.0 0.0 0.00 0.00 0.00 82 1013.7
20260508035509 43 0 0.0 0.0 0.00 0.00 0.00 82 1013.7
20260508035009 43 298 0.0 0.0 0.00 0.00 0.00 81 1013.8
20260508034503 43 298 0.0 0.0 0.00 0.00 0.00 81 1013.7
20260508033957 44 298 0.0 0.0 0.00 0.00 0.00 82 1013.8
20260508033451 44 298 0.0 0.0 0.00 0.00 0.00 81 1013.7
20260508033217 44 298 0.0 0.0 0.00 0.00 0.00 81 1013.9
20260508032440 44 295 0.0 0.0 0.00 0.00 0.00 81 1013.9
20260508031934 44 0 0.0 0.0 0.00 0.00 0.00 80 1013.8
20260508031657 44 302 0.0 0.0 0.00 0.00 0.00 79 1013.6
20260508030922 44 302 0.0 0.0 0.00 0.00 0.00 79 1013.6
20260508030417 44 302 0.0 0.0 0.00 0.00 0.00 79 1013.6
20260508025910 44 302 0.0 0.0 0.00 0.00 0.00 78 1013.8
20260508025622 44 302 0.0 0.0 0.00 0.00 0.00 78 1013.8
20260508024858 45 302 0.0 0.0 0.00 0.00 0.00 77 1013.9
20260508024357 45 302 0.0 0.0 0.00 0.00 0.00 77 1013.8
20260508023858 45 302 0.0 0.0 0.00 0.00 0.00 77 1013.8
20260508023356 45 302 0.0 0.0 0.00 0.00 0.00 76 1013.7
20260508022855 46 298 0.0 0.0 0.00 0.00 0.00 75 1013.6
20260508022354 46 301 0.0 0.0 0.00 0.00 0.00 75 1013.6
20260508021852 46 0 0.0 0.0 0.00 0.00 0.00 74 1013.7
20260508021351 46 0 0.0 0.0 0.00 0.00 0.00 74 1013.7
20260508020853 47 0 0.0 0.0 0.00 0.00 0.00 74 1013.6
20260508020349 47 0 0.0 0.0 0.00 0.00 0.00 73 1013.5
20260508015849 47 0 0.0 0.0 0.00 0.00 0.00 71 1013.7
20260508015347 48 0 0.0 0.0 0.00 0.00 0.00 71 1013.7
20260508015334 48 0 0.0 0.0 0.00 0.00 0.00 70 1013.6
20260508014348 49 0 0.0 0.0 0.00 0.00 0.00 70 1013.7
20260508013847 49 0 0.0 0.0 0.00 0.00 0.00 68 1013.7
20260508013345 49 0 0.0 0.0 0.00 0.00 0.00 67 1013.7
20260508012845 50 0 0.0 0.0 0.00 0.00 0.00 67 1013.7
20260508012345 50 0 0.0 0.0 0.00 0.00 0.00 66 1013.6
20260508011839 51 0 0.0 0.0 0.00 0.00 0.00 64 1013.5
20260508011332 51 0 0.0 0.0 0.00 0.00 0.00 63 1013.5
20260508010827 52 0 0.0 0.0 0.00 0.00 0.00 63 1013.5
20260508010321 52 0 0.0 0.0 0.00 0.00 0.00 59 1013.5
20260508005815 53 0 0.0 0.0 0.00 0.00 0.00 58 1013.4
20260508005531 53 0 0.0 0.0 0.00 0.00 0.00 54 1013.4
20260508004803 54 0 0.0 0.0 0.00 0.00 0.00 54 1013.4
20260508004256 54 303 0.0 0.0 0.00 0.00 0.00 52 1013.4
20260508003751 55 0 0.0 0.0 0.00 0.00 0.00 51 1013.4
20260508003245 55 303 0.0 0.0 0.00 0.00 0.00 51 1013.3
20260508002739 56 303 0.0 0.0 0.00 0.00 0.00 49 1013.4
20260508002501 56 303 0.0 0.0 0.00 0.00 0.00 48 1013.3
20260508001727 56 303 0.0 0.0 0.00 0.00 0.00 46 1013.2
20260508001221 57 302 0.0 0.0 0.00 0.00 0.00 44 1013.2
20260508000714 57 302 0.0 0.0 0.00 0.00 0.00 45 1013.2
20260508000212 57 234 0.0 0.0 0.00 0.00 0.00 43 1013.2
20260507235702 58 234 0.0 0.0 0.00 0.00 0.00 42 1013.2
20260507235157 58 246 0.0 0.0 0.00 0.00 0.00 43 1013.2
20260507234651 58 246 0.0 0.0 0.00 0.00 0.00 42 1013.2
20260507234145 58 306 0.0 0.0 0.00 0.00 0.00 41 1013.1
20260507233638 58 321 0.0 0.0 0.00 0.00 0.00 43 1013.1
20260507233133 58 227 0.0 0.0 0.00 0.00 0.00 42 1013.0
20260507232627 59 228 0.0 0.0 0.00 0.00 0.00 43 1013.0
20260507232125 59 228 0.0 0.0 0.00 0.00 0.00 42 1012.9
20260507231611 59 290 0.0 0.0 0.00 0.00 0.00 44 1013.0
20260507231326 59 261 0.0 0.0 0.00 0.00 0.00 42 1013.0
20260507230558 59 261 0.0 0.0 0.00 0.00 0.00 40 1012.9
20260507230053 59 261 0.0 0.0 0.00 0.00 0.00 39 1013.0
20260507225547 60 306 0.0 0.0 0.00 0.00 0.00 39 1013.1
20260507225041 60 117 0.0 0.0 0.00 0.00 0.00 41 1012.9
20260507224535 60 235 0.0 0.0 0.00 0.00 0.00 40 1013.0
20260507224038 61 313 0.0 0.0 0.00 0.00 0.00 39 1013.0
20260507223523 61 326 0.0 0.0 0.00 0.00 0.00 40 1013.0
20260507223236 61 215 0.0 0.0 0.00 0.00 0.00 42 1013.0
20260507222511 61 72 0.0 0.0 0.00 0.00 0.00 43 1013.0
20260507222005 61 344 0.0 0.0 0.00 0.00 0.00 42 1013.1
20260507221458 61 99 0.0 0.0 0.00 0.00 0.00 42 1013.1
20260507220952 62 320 0.0 0.0 0.00 0.00 0.00 43 1013.2